{"data":{"norad_id":61953,"epoch":"2026-09-21T09:19:10.823808Z","epoch_age_seconds":108895,"freshness":"FRESH","line1":"1 61953U 24209Q   26264.38831972  .00023209  00000+0  69609-3 0  9990","line2":"2 61953  53.1587 303.8453 0001159  92.6346 267.4789 15.34392159104995","mean_motion":15.34392159,"eccentricity":0.0001159,"inclination_deg":53.1587,"raan_deg":303.8453,"arg_perigee_deg":92.6346,"mean_anomaly_deg":267.4789,"bstar":0.00069609,"rev_number":10499,"period_min":93.84823765904,"perigee_km":461.93368932585,"apogee_km":463.51940149568,"semimajor_km":6840.8635454108,"source":"CELESTRAK","updated_at":"2026-09-22T09:00:49.456426Z"}}